Location: Borea
(45.6167°N, 23.0167°E)
Time: 01:20:56
(UTC+00:00)

OPS 8068 - Pass Details

Date: 29 February 2024
Orbit: 631 x 963 km, 98.3° (Epoch: 13 April)

Event Time Altitude Azimuth Distance (km) Brightness Sun altitude
Rises 03:18:38 0° 172° (S) 2,923 ? -19.8°
Reaches altitude 10° 03:20:47 10° 175° (S) 2,037 ? -19.5°
Maximum altitude 03:25:09 66° 258° (WSW) 734 ? -18.7°
Drops below altitude 10° 03:29:52 10° 341° (NNW) 2,186 ? -17.9°
Sets 03:32:15 0° 344° (NNW) 3,159 ? -17.5°
